Location: El Gavilán
(32.5178°N, 116.7422°W)
Time: 20:58:21
(UTC+00:00)

Cosmos-2242 - Visible Passes

Search period start: 13 September 2024 00:00
Search period end: 23 September 2024 00:00
Orbit: 578 x 601 km, 82.5° (Epoch: 13 September)

Date Brightness Start Highest point End Pass type
(mag) Time Alt. Az. Time Alt. Az. Time Alt. Az.
14 Sep 6.0 11:40:58 10° SE 11:43:33 16° E 11:46:09 10° NE visible
15 Sep 5.3 11:48:01 10° SE 11:51:27 25° E 11:54:54 10° NE visible
16 Sep 4.4 11:55:28 10° SSE 11:59:22 39° E 12:03:18 10° NNE visible
17 Sep 3.4 12:03:09 10° S 12:07:17 63° E 12:11:29 10° NNE visible
18 Sep 2.8 12:11:02 10° S 12:15:14 80° W 12:19:30 10° N visible
19 Sep 3.1 12:20:11 17° SSW 12:23:11 49° W 12:27:19 10° N visible
20 Sep 5.8 10:52:46 13° ESE 10:54:17 15° E 10:56:41 10° NE visible
20 Sep 3.7 12:29:22 22° WSW 12:31:11 31° W 12:34:58 10° NNW visible
21 Sep 5.1 11:01:46 23° E 11:02:04 23° E 11:05:24 10° NE visible
21 Sep 4.2 12:38:21 19° W 12:39:10 20° WNW 12:42:21 10° NNW visible
22 Sep 4.6 11:10:37 33° ENE 11:10:37 33° ENE 11:13:44 10° NNE visible
22 Sep 4.8 12:47:11 13° WNW 12:47:11 13° WNW 12:49:16 10° NW visible
